sat.trackr.live / text

‹ back to catalog

UITMSAT-2

NORAD 67686 · 1998-067YC

PAYLOAD ACTIVE UNKNOWN

§ Identity

Operator
Country
MALA
Launch date
1998-11-20
Launch site
TYMSC
Launch vehicle
Mass (kg)
RCS (m²)

Purposes: station

External: N2YO · Heavens-Above · Gunter

§ Orbital elements

Epoch: 2026-09-19T01:08:46.928832Z

Period
90.81 min
Inclination
51.6181°
Eccentricity
0.0008124
Mean motion
15.85686331 rev/d
Perigee alt
309.0 km
Apogee alt
319.8 km
Semi-major
6,692.5 km
B*
8.0180e-4
RAAN
170.6922°
Arg perigee
164.7475°
Mean anomaly
195.3775°
Rev number
3,508

§ Raw data

UITMSAT-21 67686U 98067YC  26262.04776538  .00203393  00000+0  80180-3 0  99902 67686  51.6181 170.6922 0008124 164.7475 195.3775 15.85686331 35082

JSON: /api/v1/satellites/67686 · /tle

For live sub-satellite position, see the globe view (requires WebGL).

§ Visibility from observer

Set your observer location to see the next 7 days of passes ≥ 10°. The values pass through the URL so the page stays shareable.

No JS? Fill the form by hand. The geolocation button needs JavaScript.